{"data":{"norad_id":67863,"epoch":"2026-09-19T08:02:15.067968Z","epoch_age_seconds":167105,"freshness":"FRESH","line1":"1 67863U 26034P   26262.33489662  .00022945  00000+0  68778-3 0  9994","line2":"2 67863  53.1623  23.3684 0001537  80.5074 279.6102 15.34415952 33707","mean_motion":15.34415952,"eccentricity":0.0001537,"inclination_deg":53.1623,"raan_deg":23.3684,"arg_perigee_deg":80.5074,"mean_anomaly_deg":279.6102,"bstar":0.00068778,"rev_number":3370,"period_min":93.84678242709,"perigee_km":461.60439805448,"apogee_km":463.70725776977997,"semimajor_km":6840.7928279121,"source":"CELESTRAK","updated_at":"2026-09-20T09:00:43.676125Z"}}